930  
NZUS99 KSGF 061407  
HRRSGF  
 
HOURLY WEATHER  
NATIONAL WEATHER SERVICE SPRINGFIELD MO  
900 AM CDT WED JUL 06 2022  
   
.....SGF CWA...
 
 
 
CITY SKY/WX TMP DP RH WIND PRES REMARKS  
SPRINGFIELD SUNNY 85 69 58 S12 29.99R  
JOPLIN SUNNY 88 68 51 S13G21 29.97R HX 91  
WEST PLAINS MOSUNNY 83 71 67 W7 30.03R  
ROLLA PTSUNNY 85 68 56 SW7 29.99S  
BRANSON SUNNY 86 68 54 S7 30.02R  
   
.....SURROUNDING SGF CWA...
 
 
 
CITY SKY/WX TMP DP RH WIND PRES REMARKS  
CHANUTE MOSUNNY 86 68 54 S13G22 29.93S  
PARSONS SUNNY 85 69 58 S7 29.95R  
COFFEYVILLE SUNNY 88 68 51 S14 29.92R HX 91  
EMPORIA MOSUNNY 82 69 64 SE8 29.94S  
ROGERS AR MOSUNNY 87 69 54 SW14 30.03R HX 91  
SILOAM SPRINGS SUNNY 85 71 63 S13G20 30.01R HX 90  
HARRISON AR SUNNY 86 69 56 VRB6 30.03R HX 90  
NEAR YELLVILLE SUNNY 87 71 58 SW3 30.00R HX 93  
   
.....KANSAS AND MISSOURI...
 
 
 
CITY SKY/WX TMP DP RH WIND PRES REMARKS  
KANSAS CTY INT PTSUNNY 82 72 71 N16G23 29.96R  
DOWNTOWN KC PTSUNNY 82 73 74 NW8 29.93R  
COLUMBIA PTSUNNY 80 72 76 CALM 29.97R  
ST JOSEPH PTSUNNY 77 74 90 N8 29.94F  
ST LOUIS CLOUDY 84 71 65 VRB3 29.97R  
SPIRIT OF STL PTSUNNY 82 73 74 CALM 29.94R  
KIRKSVILLE PTSUNNY 76 73 91 S6 29.96R  
WICHITA MOSUNNY 84 65 52 E3 29.92R  
TOPEKA PTSUNNY 81 72 74 NE7 29.94R  
OLATHE PTSUNNY 83 69 62 SW3 29.95S  
   
.....TENNESSEE...
 
 
 
CITY SKY/WX TMP DP RH WIND PRES REMARKS  
MEMPHIS MOSUNNY 89 75 63 SW6 30.01R HX 99  
NASHVILLE MOSUNNY 87 72 60 W7 30.02S HX 93  
   
.....ARKANSAS....
 
 
 
CITY SKY/WX TMP DP RH WIND PRES REMARKS  
FAYETTEVILLE SUNNY 87 70 56 SW12 30.01R HX 92  
FT SMITH SUNNY 86 71 60 VRB3 29.97S HX 91  
LITTLE ROCK MOSUNNY 85 74 69 SW6 29.99R HX 92  
   
.....OKLAHOMA....
 
 
 
CITY SKY/WX TMP DP RH WIND PRES REMARKS  
TULSA MOSUNNY 87 68 52 S12G24 29.93R HX 90  
PONCA CITY PTSUNNY 87 66 49 S9 29.90R  
MCALESTER SUNNY 85 71 63 S9 29.98R HX 90  
OKLAHOMA CITY MOSUNNY 84 67 56 S15 29.94R  
   
.....IOWA.........
 
 
 
CITY SKY/WX TMP DP RH WIND PRES REMARKS  
DES MOINES CLOUDY 72 71 97 N7 29.95F FOG  
QUAD CITIES CLOUDY 77 70 79 NE9 29.94R  
   
.....ILLINOIS.....
 
 
 
CITY SKY/WX TMP DP RH WIND PRES REMARKS  
QUINCY PTSUNNY 78 74 87 NW6 29.93R  
CHICAGO CLOUDY 71 68 90 N9 29.95R  
 
 
 
CLICK HERE TO GO TO PREVIOUS BULLETINS.

The Nexlab MO Page
The Nexlab KS Page Main Text Page